Year,Month,Day,Hour,Minute,Value (Times are PST for temperature in C)
2016,12,17,00,00,-1.50
2016,12,17,00,01,-1.40
2016,12,17,00,02,-1.40
2016,12,17,00,03,-1.30
2016,12,17,00,04,-1.30
2016,12,17,00,05,-1.20
2016,12,17,00,06,-1.20
2016,12,17,00,07,-1.20
2016,12,17,00,08,-1.20
2016,12,17,00,09,-1.20
2016,12,17,00,10,-1.20
2016,12,17,00,11,-1.20
2016,12,17,00,12,-1.20
2016,12,17,00,13,-1.30
2016,12,17,00,14,-1.30
2016,12,17,00,15,-1.30
2016,12,17,00,16,-1.30
2016,12,17,00,17,-1.30
2016,12,17,00,18,-1.30
2016,12,17,00,19,-1.30
2016,12,17,00,20,-1.30
2016,12,17,00,21,-1.30
2016,12,17,00,22,-1.30
2016,12,17,00,23,-1.30
2016,12,17,00,24,-1.30
2016,12,17,00,25,-1.20
2016,12,17,00,26,-1.20
2016,12,17,00,27,-1.20
2016,12,17,00,28,-1.20
2016,12,17,00,29,-1.20
2016,12,17,00,30,-1.20
2016,12,17,00,31,-1.20
2016,12,17,00,32,-1.20
2016,12,17,00,33,-1.20
2016,12,17,00,34,-1.20
2016,12,17,00,35,-1.20
2016,12,17,00,36,-1.20
2016,12,17,00,37,-1.20
2016,12,17,00,38,-1.10
2016,12,17,00,39,-1.10
2016,12,17,00,40,-1.20
2016,12,17,00,41,-1.20
2016,12,17,00,42,-1.20
2016,12,17,00,43,-1.20
2016,12,17,00,44,-1.20
2016,12,17,00,45,-1.20
2016,12,17,00,46,-1.20
2016,12,17,00,47,-1.20
2016,12,17,00,48,-1.20
2016,12,17,00,49,-1.20
2016,12,17,00,50,-1.20
2016,12,17,00,51,-1.20
2016,12,17,00,52,-1.20
2016,12,17,00,53,-1.20
2016,12,17,00,54,-1.30
2016,12,17,00,55,-1.30
2016,12,17,00,56,-1.30
2016,12,17,00,57,-1.30
2016,12,17,00,58,-1.30
2016,12,17,00,59,-1.30
2016,12,17,01,00,-1.30
2016,12,17,01,01,-1.40
2016,12,17,01,02,-1.40
2016,12,17,01,03,-1.40
2016,12,17,01,04,-1.40
2016,12,17,01,05,-1.40
2016,12,17,01,06,-1.40
2016,12,17,01,07,-1.40
2016,12,17,01,08,-1.40
2016,12,17,01,09,-1.40
2016,12,17,01,10,-1.40
2016,12,17,01,11,-1.40
2016,12,17,01,12,-1.40
2016,12,17,01,13,-1.40
2016,12,17,01,14,-1.40
2016,12,17,01,15,-1.40
2016,12,17,01,16,-1.40
2016,12,17,01,17,-1.40
2016,12,17,01,18,-1.40
2016,12,17,01,19,-1.40
2016,12,17,01,20,-1.40
2016,12,17,01,21,-1.30
2016,12,17,01,22,-1.30
2016,12,17,01,23,-1.30
2016,12,17,01,24,-1.20
2016,12,17,01,25,-1.20
2016,12,17,01,26,-1.10
2016,12,17,01,27,-1.10
2016,12,17,01,28,-1.10
2016,12,17,01,29,-1.10
2016,12,17,01,30,-1.10
2016,12,17,01,31,-1.10
2016,12,17,01,32,-1.10
2016,12,17,01,33,-1.10
2016,12,17,01,34,-1.10
2016,12,17,01,35,-1.10
2016,12,17,01,36,-1.10
2016,12,17,01,37,-1.10
2016,12,17,01,38,-1.10
2016,12,17,01,39,-1.10
2016,12,17,01,40,-1.10
2016,12,17,01,41,-1.10
2016,12,17,01,42,-1.10
2016,12,17,01,43,-1.10
2016,12,17,01,44,-1.10
2016,12,17,01,45,-1.10
2016,12,17,01,46,-1.10
2016,12,17,01,47,-1.10
2016,12,17,01,48,-1.10
2016,12,17,01,49,-1.10
2016,12,17,01,50,-1.20
2016,12,17,01,51,-1.20
2016,12,17,01,52,-1.20
2016,12,17,01,53,-1.20
2016,12,17,01,54,-1.20
2016,12,17,01,55,-1.20
2016,12,17,01,56,-1.20
2016,12,17,01,57,-1.30
2016,12,17,01,58,-1.30
2016,12,17,01,59,-1.30
2016,12,17,02,00,-1.30
2016,12,17,02,01,-1.30
2016,12,17,02,02,-1.40
2016,12,17,02,03,-1.40
2016,12,17,02,04,-1.40
2016,12,17,02,05,-1.40
2016,12,17,02,06,-1.40
2016,12,17,02,07,-1.40
2016,12,17,02,08,-1.40
2016,12,17,02,09,-1.40
2016,12,17,02,10,-1.40
2016,12,17,02,11,-1.40
2016,12,17,02,12,-1.40
2016,12,17,02,13,-1.40
2016,12,17,02,14,-1.40
2016,12,17,02,15,-1.40
2016,12,17,02,16,-1.40
2016,12,17,02,17,-1.40
2016,12,17,02,18,-1.40
2016,12,17,02,19,-1.40
2016,12,17,02,20,-1.40
2016,12,17,02,21,-1.40
2016,12,17,02,22,-1.50
2016,12,17,02,23,-1.50
2016,12,17,02,24,-1.60
2016,12,17,02,25,-1.60
2016,12,17,02,26,-1.60
2016,12,17,02,27,-1.70
2016,12,17,02,28,-1.80
2016,12,17,02,29,-1.80
2016,12,17,02,30,-1.80
2016,12,17,02,31,-1.90
2016,12,17,02,32,-1.90
2016,12,17,02,33,-2.00
2016,12,17,02,34,-2.00
2016,12,17,02,35,-2.10
2016,12,17,02,36,-2.20
2016,12,17,02,37,-2.20
2016,12,17,02,38,-2.30
2016,12,17,02,39,-2.30
2016,12,17,02,40,-2.30
2016,12,17,02,41,-2.40
2016,12,17,02,42,-2.40
2016,12,17,02,43,-2.50
2016,12,17,02,44,-2.50
2016,12,17,02,45,-2.50
2016,12,17,02,46,-2.60
2016,12,17,02,47,-2.60
2016,12,17,02,48,-2.60
2016,12,17,02,49,-2.70
2016,12,17,02,50,-2.70
2016,12,17,02,51,-2.80
2016,12,17,02,52,-2.80
2016,12,17,02,53,-2.80
2016,12,17,02,54,-2.80
2016,12,17,02,55,-2.80
2016,12,17,02,56,-2.80
2016,12,17,02,57,-2.80
2016,12,17,02,58,-2.90
2016,12,17,02,59,-2.90
2016,12,17,03,00,-2.90
2016,12,17,03,01,-2.90
2016,12,17,03,02,-3.00
2016,12,17,03,03,-3.00
2016,12,17,03,04,-3.00
2016,12,17,03,05,-3.10
2016,12,17,03,06,-3.10
2016,12,17,03,07,-3.10
2016,12,17,03,08,-3.10
2016,12,17,03,09,-3.20
2016,12,17,03,10,-3.20
2016,12,17,03,11,-3.20
2016,12,17,03,12,-3.20
2016,12,17,03,13,-3.30
2016,12,17,03,14,-3.30
2016,12,17,03,15,-3.30
2016,12,17,03,16,-3.30
2016,12,17,03,17,-3.30
2016,12,17,03,18,-3.30
2016,12,17,03,19,-3.30
2016,12,17,03,20,-3.30
2016,12,17,03,21,-3.30
2016,12,17,03,22,-3.20
2016,12,17,03,23,-3.20
2016,12,17,03,24,-3.20
2016,12,17,03,25,-3.10
2016,12,17,03,26,-3.10
2016,12,17,03,27,-3.10
2016,12,17,03,28,-3.10
2016,12,17,03,29,-3.00
2016,12,17,03,30,-3.00
2016,12,17,03,31,-3.00
2016,12,17,03,32,-3.00
2016,12,17,03,33,-2.90
2016,12,17,03,34,-2.90
2016,12,17,03,35,-2.90
2016,12,17,03,36,-2.80
2016,12,17,03,37,-2.80
2016,12,17,03,38,-2.80
2016,12,17,03,39,-2.80
2016,12,17,03,40,-2.80
2016,12,17,03,41,-2.80
2016,12,17,03,42,-2.80
2016,12,17,03,43,-2.80
2016,12,17,03,44,-2.70
2016,12,17,03,45,-2.70
2016,12,17,03,46,-2.70
2016,12,17,03,47,-2.60
2016,12,17,03,48,-2.60
2016,12,17,03,49,-2.60
2016,12,17,03,50,-2.50
2016,12,17,03,51,-2.50
2016,12,17,03,52,-2.50
2016,12,17,03,53,-2.50
2016,12,17,03,54,-2.40
2016,12,17,03,55,-2.40
2016,12,17,03,56,-2.40
2016,12,17,03,57,-2.40
2016,12,17,03,58,-2.40
2016,12,17,03,59,-2.40
2016,12,17,04,00,-2.40
2016,12,17,04,01,-2.40
2016,12,17,04,02,-2.40
2016,12,17,04,03,-2.40
2016,12,17,04,04,-2.40
2016,12,17,04,05,-2.40
2016,12,17,04,06,-2.40
2016,12,17,04,07,-2.40
2016,12,17,04,08,-2.40
2016,12,17,04,09,-2.40
2016,12,17,04,10,-2.40
2016,12,17,04,11,-2.40
2016,12,17,04,12,-2.40
2016,12,17,04,13,-2.40
2016,12,17,04,14,-2.40
2016,12,17,04,15,-2.30
2016,12,17,04,16,-2.30
2016,12,17,04,17,-2.30
2016,12,17,04,18,-2.30
2016,12,17,04,19,-2.30
2016,12,17,04,20,-2.40
2016,12,17,04,21,-2.40
2016,12,17,04,22,-2.40
2016,12,17,04,23,-2.40
2016,12,17,04,24,-2.40
2016,12,17,04,25,-2.40
2016,12,17,04,26,-2.40
2016,12,17,04,27,-2.40
2016,12,17,04,28,-2.40
2016,12,17,04,29,-2.40
2016,12,17,04,30,-2.40
2016,12,17,04,31,-2.30
2016,12,17,04,32,-2.30
2016,12,17,04,33,-2.30
2016,12,17,04,34,-2.30
2016,12,17,04,35,-2.30
2016,12,17,04,36,-2.30
2016,12,17,04,37,-2.20
2016,12,17,04,38,-2.20
2016,12,17,04,39,-2.20
2016,12,17,04,40,-2.20
2016,12,17,04,41,-2.10
2016,12,17,04,42,-2.10
2016,12,17,04,43,-2.10
2016,12,17,04,44,-2.10
2016,12,17,04,45,-2.10
2016,12,17,04,46,-2.10
2016,12,17,04,47,-2.10
2016,12,17,04,48,-2.10
2016,12,17,04,49,-2.10
2016,12,17,04,50,-2.10
2016,12,17,04,51,-2.10
2016,12,17,04,52,-2.00
2016,12,17,04,53,-2.00
2016,12,17,04,54,-2.00
2016,12,17,04,55,-2.00
2016,12,17,04,56,-2.00
2016,12,17,04,57,-2.00
2016,12,17,04,58,-2.10
2016,12,17,04,59,-2.10
2016,12,17,05,00,-2.10
2016,12,17,05,01,-2.10
2016,12,17,05,02,-2.10
2016,12,17,05,03,-2.20
2016,12,17,05,04,-2.20
2016,12,17,05,05,-2.20
2016,12,17,05,06,-2.20
2016,12,17,05,07,-2.20
2016,12,17,05,08,-2.20
2016,12,17,05,09,-2.20
2016,12,17,05,10,-2.20
2016,12,17,05,11,-2.20
2016,12,17,05,12,-2.20
2016,12,17,05,13,-2.20
2016,12,17,05,14,-2.20
2016,12,17,05,15,-2.20
2016,12,17,05,16,-2.20
2016,12,17,05,17,-2.20
2016,12,17,05,18,-2.20
2016,12,17,05,19,-2.10
2016,12,17,05,20,-2.10
2016,12,17,05,21,-2.10
2016,12,17,05,22,-2.10
2016,12,17,05,23,-2.10
2016,12,17,05,24,-2.00
2016,12,17,05,25,-1.90
2016,12,17,05,26,-1.90
2016,12,17,05,27,-1.90
2016,12,17,05,28,-1.90
2016,12,17,05,29,-1.90
2016,12,17,05,30,-1.90
2016,12,17,05,31,-1.90
2016,12,17,05,32,-1.90
2016,12,17,05,33,-1.90
2016,12,17,05,34,-1.90
2016,12,17,05,35,-1.90
2016,12,17,05,36,-1.90
2016,12,17,05,37,-1.90
2016,12,17,05,38,-2.00
2016,12,17,05,39,-2.00
2016,12,17,05,40,-2.00
2016,12,17,05,41,-2.00
2016,12,17,05,42,-1.90
2016,12,17,05,43,-1.90
2016,12,17,05,44,-1.90
2016,12,17,05,45,-1.90
2016,12,17,05,46,-1.90
2016,12,17,05,47,-1.90
2016,12,17,05,48,-1.90
2016,12,17,05,49,-1.90
2016,12,17,05,50,-1.90
2016,12,17,05,51,-1.90
2016,12,17,05,52,-1.80
2016,12,17,05,53,-1.80
2016,12,17,05,54,-1.80
2016,12,17,05,55,-1.80
2016,12,17,05,56,-1.80
2016,12,17,05,57,-1.80
2016,12,17,05,58,-1.80
2016,12,17,05,59,-1.70
2016,12,17,06,00,-1.70
2016,12,17,06,01,-1.70
2016,12,17,06,02,-1.70
2016,12,17,06,03,-1.70
2016,12,17,06,04,-1.60
2016,12,17,06,05,-1.60
2016,12,17,06,06,-1.60
2016,12,17,06,07,-1.60
2016,12,17,06,08,-1.60
2016,12,17,06,09,-1.60
2016,12,17,06,10,-1.60
2016,12,17,06,11,-1.60
2016,12,17,06,12,-1.60
2016,12,17,06,13,-1.60
2016,12,17,06,14,-1.60
2016,12,17,06,15,-1.50
2016,12,17,06,16,-1.50
2016,12,17,06,17,-1.50
2016,12,17,06,18,-1.50
2016,12,17,06,19,-1.50
2016,12,17,06,20,-1.50
2016,12,17,06,21,-1.50
2016,12,17,06,22,-1.50
2016,12,17,06,23,-1.50
2016,12,17,06,24,-1.50
2016,12,17,06,25,-1.50
2016,12,17,06,26,-1.50
2016,12,17,06,27,-1.50
2016,12,17,06,28,-1.50
2016,12,17,06,29,-1.50
2016,12,17,06,30,-1.50
2016,12,17,06,31,-1.50
2016,12,17,06,32,-1.50
2016,12,17,06,33,-1.50
2016,12,17,06,34,-1.50
2016,12,17,06,35,-1.50
2016,12,17,11,06,-0.40
2016,12,17,11,07,-0.40
2016,12,17,11,08,-0.40
2016,12,17,11,09,-0.40
2016,12,17,11,10,-0.40
2016,12,17,11,11,-0.40
2016,12,17,11,12,-0.40
2016,12,17,11,13,-0.40
2016,12,17,11,14,-0.40
2016,12,17,11,15,-0.40
2016,12,17,11,16,-0.40
2016,12,17,11,17,-0.50
2016,12,17,11,18,-0.60
2016,12,17,11,19,-0.60
2016,12,17,11,20,-0.60
2016,12,17,11,21,-0.60
2016,12,17,11,22,-0.60
2016,12,17,11,23,-0.60
2016,12,17,11,24,-0.60
2016,12,17,11,25,-0.60
2016,12,17,11,26,-0.60
2016,12,17,11,27,-0.60
2016,12,17,11,28,-0.60
2016,12,17,11,29,-0.60
2016,12,17,11,30,-0.60
2016,12,17,11,31,-0.60
2016,12,17,11,32,-0.60
2016,12,17,11,33,-0.60
2016,12,17,11,34,-0.60
2016,12,17,11,35,-0.60
2016,12,17,11,36,-0.60
2016,12,17,11,37,-0.60
2016,12,17,11,38,-0.60
2016,12,17,11,39,-0.60
2016,12,17,11,40,-0.60
2016,12,17,11,41,-0.60
2016,12,17,11,42,-0.60
2016,12,17,11,43,-0.60
2016,12,17,11,44,-0.60
2016,12,17,11,45,-0.60
2016,12,17,11,46,-0.60
2016,12,17,11,47,-0.60
2016,12,17,11,48,-0.60
2016,12,17,11,49,-0.60
2016,12,17,11,50,-0.60
2016,12,17,11,51,-0.60
2016,12,17,11,52,-0.50
2016,12,17,11,53,-0.40
2016,12,17,11,54,-0.40
2016,12,17,11,55,-0.40
2016,12,17,11,56,-0.40
2016,12,17,11,57,-0.40
2016,12,17,11,58,-0.40
2016,12,17,11,59,-0.40
2016,12,17,12,00,-0.40
2016,12,17,12,01,-0.40
2016,12,17,12,02,-0.40
2016,12,17,12,03,-0.40
2016,12,17,12,04,-0.40
2016,12,17,12,05,-0.40
2016,12,17,12,06,-0.40
2016,12,17,12,07,-0.40
2016,12,17,12,08,-0.40
2016,12,17,12,09,-0.40
2016,12,17,12,10,-0.40
2016,12,17,12,11,-0.40
2016,12,17,12,12,-0.40
2016,12,17,12,13,-0.30
2016,12,17,12,14,-0.30
2016,12,17,12,15,-0.20
2016,12,17,12,16,-0.20
2016,12,17,12,17,-0.20
2016,12,17,12,18,-0.10
2016,12,17,12,19,-0.10
2016,12,17,12,20,-0.10
2016,12,17,12,21,-0.10
2016,12,17,12,22,-0.10
2016,12,17,12,23,-0.10
2016,12,17,12,24,-0.10
2016,12,17,12,25,-0.10
2016,12,17,12,26,-0.10
2016,12,17,12,27,-0.10
2016,12,17,12,28,-0.20
2016,12,17,12,29,-0.20
2016,12,17,12,30,-0.20
2016,12,17,12,31,-0.20
2016,12,17,12,32,-0.20
2016,12,17,12,33,-0.20
2016,12,17,12,34,-0.20
2016,12,17,12,35,-0.10
2016,12,17,12,36,-0.10
2016,12,17,12,37,-0.10
2016,12,17,12,38,-0.10
2016,12,17,12,39,-0.10
2016,12,17,12,40,0.00
2016,12,17,12,41,0.10
2016,12,17,12,42,0.10
2016,12,17,12,43,0.10
2016,12,17,12,44,0.20
2016,12,17,12,45,0.20
2016,12,17,12,46,0.20
2016,12,17,12,47,0.20
2016,12,17,12,48,0.20
2016,12,17,12,49,0.20
2016,12,17,12,50,0.20
2016,12,17,12,51,0.20
2016,12,17,12,52,0.20
2016,12,17,12,53,0.20
2016,12,17,12,54,0.20
2016,12,17,12,55,0.20
2016,12,17,12,56,0.20
2016,12,17,12,57,0.20
2016,12,17,12,58,0.20
2016,12,17,12,59,0.20
2016,12,17,13,00,0.20
2016,12,17,13,01,0.20
2016,12,17,13,02,0.20
2016,12,17,13,03,0.20
2016,12,17,13,04,0.20
2016,12,17,13,05,0.30
2016,12,17,13,06,0.30
2016,12,17,13,07,0.40
2016,12,17,13,08,0.40
2016,12,17,13,09,0.50
2016,12,17,13,10,0.50
2016,12,17,13,11,0.60
2016,12,17,13,12,0.60
2016,12,17,13,13,0.60
2016,12,17,13,14,0.60
2016,12,17,13,15,0.50
2016,12,17,13,16,0.50
2016,12,17,13,17,0.50
2016,12,17,13,18,0.50
2016,12,17,13,19,0.50
2016,12,17,13,20,0.50
2016,12,17,13,21,0.50
2016,12,17,13,22,0.50
2016,12,17,13,23,0.50
2016,12,17,13,24,0.50
2016,12,17,13,25,0.40
2016,12,17,13,26,0.40
2016,12,17,13,27,0.50
2016,12,17,13,28,0.50
2016,12,17,13,29,0.50
2016,12,17,13,30,0.50
2016,12,17,13,31,0.50
2016,12,17,13,32,0.50
2016,12,17,13,33,0.50
2016,12,17,13,34,0.60
2016,12,17,13,35,0.60
2016,12,17,13,36,0.60
2016,12,17,13,37,0.70
2016,12,17,13,38,0.70
2016,12,17,13,39,0.70
2016,12,17,13,40,0.80
2016,12,17,13,41,0.80
2016,12,17,13,42,0.70
2016,12,17,13,43,0.70
2016,12,17,13,44,0.70
2016,12,17,13,45,0.70
2016,12,17,13,46,0.70
2016,12,17,13,47,0.60
2016,12,17,13,48,0.60
2016,12,17,13,49,0.60
2016,12,17,13,50,0.60
2016,12,17,13,51,0.60
2016,12,17,13,52,0.60
2016,12,17,13,53,0.60
2016,12,17,13,54,0.60
2016,12,17,13,55,0.60
2016,12,17,13,56,0.60
2016,12,17,13,57,0.60
2016,12,17,13,58,0.60
2016,12,17,13,59,0.60
2016,12,17,14,00,0.70
2016,12,17,14,01,0.60
2016,12,17,14,02,0.60
2016,12,17,14,03,0.60
2016,12,17,14,04,0.70
2016,12,17,14,05,0.70
2016,12,17,14,06,0.70
2016,12,17,14,07,0.70
2016,12,17,14,08,0.60
2016,12,17,14,09,0.60
2016,12,17,14,10,0.60
2016,12,17,14,11,0.60
2016,12,17,14,12,0.60
2016,12,17,14,13,0.60
2016,12,17,14,14,0.60
2016,12,17,14,15,0.60
2016,12,17,14,16,0.60
2016,12,17,14,17,0.50
2016,12,17,14,18,0.50
2016,12,17,14,19,0.50
2016,12,17,14,20,0.50
2016,12,17,14,21,0.50
2016,12,17,14,22,0.40
2016,12,17,14,23,0.40
2016,12,17,14,24,0.40
2016,12,17,14,25,0.40
2016,12,17,14,26,0.40
2016,12,17,14,27,0.40
2016,12,17,14,28,0.40
2016,12,17,14,29,0.40
2016,12,17,14,30,0.40
2016,12,17,14,31,0.50
2016,12,17,14,32,0.50
2016,12,17,14,33,0.50
2016,12,17,14,34,0.50
2016,12,17,14,35,0.50
2016,12,17,14,36,0.60
2016,12,17,14,37,0.60
2016,12,17,14,38,0.60
2016,12,17,14,39,0.60
2016,12,17,14,40,0.60
2016,12,17,14,41,0.60
2016,12,17,14,42,0.60
2016,12,17,14,43,0.60
2016,12,17,14,44,0.50
2016,12,17,14,45,0.50
2016,12,17,14,46,0.50
2016,12,17,14,47,0.50
2016,12,17,14,48,0.50
2016,12,17,14,49,0.50
2016,12,17,14,50,0.50
2016,12,17,14,51,0.50
2016,12,17,14,52,0.50
2016,12,17,14,53,0.50
2016,12,17,14,54,0.50
2016,12,17,14,55,0.50
2016,12,17,14,56,0.50
2016,12,17,14,57,0.50
2016,12,17,14,58,0.50
2016,12,17,14,59,0.50
2016,12,17,15,00,0.50
2016,12,17,15,01,0.50
2016,12,17,15,02,0.50
2016,12,17,15,03,0.50
2016,12,17,15,04,0.40
2016,12,17,15,05,0.40
2016,12,17,15,06,0.40
2016,12,17,15,07,0.40
2016,12,17,15,08,0.50
2016,12,17,15,09,0.50
2016,12,17,15,10,0.50
2016,12,17,15,11,0.50
2016,12,17,15,12,0.50
2016,12,17,15,13,0.50
2016,12,17,15,14,0.50
2016,12,17,15,15,0.50
2016,12,17,15,16,0.50
2016,12,17,15,17,0.50
2016,12,17,15,18,0.50
2016,12,17,15,19,0.50
2016,12,17,15,20,0.50
2016,12,17,15,21,0.50
2016,12,17,15,22,0.50
2016,12,17,15,23,0.50
2016,12,17,15,24,0.50
2016,12,17,15,25,0.50
2016,12,17,15,26,0.50
2016,12,17,15,27,0.50
2016,12,17,15,28,0.50
2016,12,17,15,29,0.50
2016,12,17,15,30,0.50
2016,12,17,15,31,0.50
2016,12,17,15,32,0.50
2016,12,17,15,33,0.50
2016,12,17,15,34,0.50
2016,12,17,15,35,0.50
2016,12,17,15,36,0.50
2016,12,17,15,37,0.50
2016,12,17,15,38,0.50
2016,12,17,15,39,0.50
2016,12,17,15,40,0.50
2016,12,17,15,41,0.50
2016,12,17,15,42,0.50
2016,12,17,15,43,0.50
2016,12,17,15,44,0.40
2016,12,17,15,45,0.40
2016,12,17,15,46,0.40
2016,12,17,15,47,0.40
2016,12,17,15,48,0.40
2016,12,17,15,49,0.40
2016,12,17,15,50,0.50
2016,12,17,15,51,0.50
2016,12,17,15,52,0.50
2016,12,17,15,53,0.50
2016,12,17,15,54,0.40
2016,12,17,15,55,0.40
2016,12,17,15,56,0.40
2016,12,17,15,57,0.40
2016,12,17,15,58,0.40
2016,12,17,15,59,0.40
2016,12,17,16,00,0.40
2016,12,17,16,01,0.40
2016,12,17,16,02,0.40
2016,12,17,16,03,0.40
2016,12,17,16,04,0.40
2016,12,17,16,05,0.40
2016,12,17,16,06,0.40
2016,12,17,16,07,0.40
2016,12,17,16,08,0.40
2016,12,17,16,09,0.40
2016,12,17,16,10,0.40
2016,12,17,16,11,0.40
2016,12,17,16,12,0.40
2016,12,17,16,13,0.40
2016,12,17,16,14,0.40
2016,12,17,16,15,0.40
2016,12,17,16,16,0.40
2016,12,17,16,17,0.40
2016,12,17,16,18,0.40
2016,12,17,16,19,0.40
2016,12,17,16,20,0.40
2016,12,17,16,21,0.40
2016,12,17,16,22,0.40
2016,12,17,16,23,0.40
2016,12,17,16,24,0.40
2016,12,17,16,25,0.40
2016,12,17,16,26,0.40
2016,12,17,16,27,0.40
2016,12,17,16,28,0.40
2016,12,17,16,29,0.40
2016,12,17,16,30,0.40
2016,12,17,16,31,0.40
2016,12,17,16,32,0.40
2016,12,17,16,33,0.40
2016,12,17,16,34,0.30
2016,12,17,16,35,0.30
2016,12,17,16,36,0.30
2016,12,17,16,37,0.30
2016,12,17,16,38,0.30
2016,12,17,16,39,0.30
2016,12,17,16,40,0.30
2016,12,17,16,41,0.20
2016,12,17,16,42,0.20
2016,12,17,16,43,0.20
2016,12,17,16,44,0.20
2016,12,17,16,45,0.20
2016,12,17,16,46,0.10
2016,12,17,16,47,0.10
2016,12,17,16,48,0.10
2016,12,17,16,49,0.10
2016,12,17,16,50,0.10
2016,12,17,16,51,0.10
2016,12,17,16,52,0.10
2016,12,17,16,53,0.10
2016,12,17,16,54,0.10
2016,12,17,16,55,0.00
2016,12,17,16,56,-0.10
2016,12,17,16,57,-0.10
2016,12,17,16,58,-0.10
2016,12,17,16,59,-0.10
2016,12,17,17,00,-0.10
2016,12,17,17,01,-0.10
2016,12,17,17,02,-0.10
2016,12,17,17,03,-0.10
2016,12,17,17,04,-0.10
2016,12,17,17,05,-0.10
2016,12,17,17,06,-0.10
2016,12,17,17,07,-0.10
2016,12,17,17,08,-0.10
2016,12,17,17,09,-0.10
2016,12,17,17,10,-0.10
2016,12,17,17,11,-0.10
2016,12,17,17,12,-0.10
2016,12,17,17,13,-0.10
2016,12,17,17,14,-0.10
2016,12,17,17,15,-0.10
2016,12,17,17,16,-0.10
2016,12,17,17,17,-0.10
2016,12,17,17,18,-0.10
2016,12,17,17,19,-0.10
2016,12,17,17,20,-0.10
2016,12,17,17,21,-0.10
2016,12,17,17,22,-0.10
2016,12,17,17,23,-0.10
2016,12,17,17,24,-0.10
2016,12,17,17,25,-0.10
2016,12,17,17,26,-0.10
2016,12,17,17,27,-0.10
2016,12,17,17,28,-0.10
2016,12,17,17,29,-0.10
2016,12,17,17,30,-0.10
2016,12,17,17,31,-0.10
2016,12,17,17,32,-0.10
2016,12,17,17,33,-0.10
2016,12,17,17,34,-0.10
2016,12,17,17,35,-0.10
2016,12,17,17,36,-0.10
2016,12,17,17,37,-0.10
2016,12,17,17,38,-0.20
2016,12,17,17,39,-0.20
2016,12,17,17,40,-0.20
2016,12,17,17,41,-0.30
2016,12,17,17,42,-0.30
2016,12,17,17,43,-0.30
2016,12,17,17,44,-0.30
2016,12,17,17,45,-0.30
2016,12,17,17,46,-0.30
2016,12,17,17,47,-0.30
2016,12,17,17,48,-0.30
2016,12,17,17,49,-0.30
2016,12,17,17,50,-0.30
2016,12,17,17,51,-0.30
2016,12,17,17,52,-0.30
2016,12,17,17,53,-0.30
2016,12,17,17,54,-0.30
2016,12,17,17,55,-0.30
2016,12,17,17,56,-0.30
2016,12,17,17,57,-0.30
2016,12,17,17,58,-0.30
2016,12,17,17,59,-0.30
2016,12,17,18,00,-0.30
2016,12,17,18,01,-0.30
2016,12,17,18,02,-0.30
2016,12,17,18,03,-0.30
2016,12,17,18,04,-0.30
2016,12,17,18,05,-0.30
2016,12,17,18,06,-0.30
2016,12,17,18,07,-0.30
2016,12,17,18,08,-0.30
2016,12,17,18,09,-0.30
2016,12,17,18,10,-0.30
2016,12,17,18,11,-0.30
2016,12,17,18,12,-0.30
2016,12,17,18,13,-0.30
2016,12,17,18,14,-0.30
2016,12,17,18,15,-0.30
2016,12,17,18,16,-0.30
2016,12,17,18,17,-0.30
2016,12,17,18,18,-0.30
2016,12,17,18,19,-0.30
2016,12,17,18,20,-0.30
2016,12,17,18,21,-0.30
2016,12,17,18,22,-0.30
2016,12,17,18,23,-0.30
2016,12,17,18,24,-0.30
2016,12,17,18,25,-0.30
2016,12,17,18,26,-0.30
2016,12,17,18,27,-0.30
2016,12,17,18,28,-0.30
2016,12,17,18,29,-0.30
2016,12,17,18,30,-0.30
2016,12,17,18,31,-0.30
2016,12,17,18,32,-0.30
2016,12,17,18,33,-0.30
2016,12,17,18,34,-0.30
2016,12,17,18,35,-0.30
2016,12,17,18,36,-0.30
2016,12,17,18,37,-0.30
2016,12,17,18,38,-0.30
2016,12,17,18,39,-0.30
2016,12,17,18,40,-0.30
2016,12,17,18,41,-0.30
2016,12,17,18,42,-0.30
2016,12,17,18,43,-0.30
2016,12,17,18,44,-0.30
2016,12,17,18,45,-0.30
2016,12,17,18,46,-0.20
2016,12,17,18,47,-0.30
2016,12,17,18,48,-0.30
2016,12,17,18,49,-0.30
2016,12,17,18,50,-0.30
2016,12,17,18,51,-0.30
2016,12,17,18,52,-0.30
2016,12,17,18,53,-0.30
2016,12,17,18,54,-0.30
2016,12,17,18,55,-0.30
2016,12,17,18,56,-0.30
2016,12,17,18,57,-0.40
2016,12,17,18,58,-0.40
2016,12,17,18,59,-0.40
2016,12,17,19,00,-0.30
2016,12,17,19,01,-0.30
2016,12,17,19,02,-0.30
2016,12,17,19,03,-0.30
2016,12,17,19,04,-0.30
2016,12,17,19,05,-0.30
2016,12,17,19,06,-0.30
2016,12,17,19,07,-0.30
2016,12,17,19,08,-0.30
2016,12,17,19,09,-0.30
2016,12,17,19,10,-0.30
2016,12,17,19,11,-0.20
2016,12,17,19,12,-0.20
2016,12,17,19,13,-0.20
2016,12,17,19,14,-0.20
2016,12,17,19,15,-0.20
2016,12,17,19,16,-0.20
2016,12,17,19,17,-0.20
2016,12,17,19,18,-0.10
2016,12,17,19,19,-0.10
2016,12,17,19,20,-0.10
2016,12,17,19,21,-0.10
2016,12,17,19,22,-0.10
2016,12,17,19,23,-0.10
2016,12,17,19,24,-0.10
2016,12,17,19,25,-0.10
2016,12,17,19,26,-0.10
2016,12,17,19,27,-0.10
2016,12,17,19,28,-0.10
2016,12,17,19,29,-0.10
2016,12,17,19,30,-0.10
2016,12,17,19,31,-0.10
2016,12,17,19,32,-0.10
2016,12,17,19,33,-0.10
2016,12,17,19,34,-0.10
2016,12,17,19,35,-0.10
2016,12,17,19,36,-0.10
2016,12,17,19,37,-0.10
2016,12,17,19,38,-0.10
2016,12,17,19,39,-0.10
2016,12,17,19,40,-0.10
2016,12,17,19,41,-0.10
2016,12,17,19,42,-0.10
2016,12,17,19,43,-0.10
2016,12,17,19,44,-0.10
2016,12,17,19,45,-0.10
2016,12,17,19,46,-0.10
2016,12,17,19,47,-0.10
2016,12,17,19,48,-0.20
2016,12,17,19,49,-0.20
2016,12,17,19,50,-0.10
2016,12,17,19,51,-0.10
2016,12,17,19,52,-0.10
2016,12,17,19,53,-0.10
2016,12,17,19,54,-0.10
2016,12,17,19,55,-0.10
2016,12,17,19,56,-0.10
2016,12,17,19,57,-0.10
2016,12,17,19,58,-0.10
2016,12,17,19,59,-0.10
2016,12,17,20,00,-0.10
2016,12,17,20,01,-0.10
2016,12,17,20,02,-0.10
2016,12,17,20,03,-0.10
2016,12,17,20,04,-0.10
2016,12,17,20,05,-0.10
2016,12,17,20,06,-0.10
2016,12,17,20,07,-0.10
2016,12,17,20,08,-0.10
2016,12,17,20,09,-0.10
2016,12,17,20,10,-0.10
2016,12,17,20,11,-0.10
2016,12,17,20,12,-0.10
2016,12,17,20,13,-0.10
2016,12,17,20,14,-0.10
2016,12,17,20,15,0.00
2016,12,17,20,16,0.10
2016,12,17,20,17,0.10
2016,12,17,20,18,0.10
2016,12,17,20,19,0.20
2016,12,17,20,20,0.30
2016,12,17,20,21,0.30
2016,12,17,20,22,0.30
2016,12,17,20,23,0.40
2016,12,17,20,24,0.40
2016,12,17,20,25,0.40
2016,12,17,20,26,0.40
2016,12,17,20,27,0.40
2016,12,17,20,28,0.40
2016,12,17,20,29,0.40
2016,12,17,20,30,0.50
2016,12,17,20,31,0.50
2016,12,17,20,32,0.50
2016,12,17,20,33,0.50
2016,12,17,20,34,0.50
2016,12,17,20,35,0.50
2016,12,17,20,36,0.50
2016,12,17,20,37,0.50
2016,12,17,20,38,0.50
2016,12,17,20,39,0.50
2016,12,17,20,40,0.50
2016,12,17,20,41,0.50
2016,12,17,20,42,0.50
2016,12,17,20,43,0.50
2016,12,17,20,44,0.50
2016,12,17,20,45,0.50
2016,12,17,20,46,0.50
2016,12,17,20,47,0.50
2016,12,17,20,48,0.50
2016,12,17,20,49,0.50
2016,12,17,20,50,0.50
2016,12,17,20,51,0.50
2016,12,17,20,52,0.50
2016,12,17,20,53,0.50
2016,12,17,20,54,0.50
2016,12,17,20,55,0.50
2016,12,17,20,56,0.50
2016,12,17,20,57,0.50
2016,12,17,20,58,0.50
2016,12,17,20,59,0.50
2016,12,17,21,00,0.50
2016,12,17,21,01,0.50
2016,12,17,21,02,0.50
2016,12,17,21,03,0.50
2016,12,17,21,04,0.50
2016,12,17,21,05,0.50
2016,12,17,21,06,0.50
2016,12,17,21,07,0.50
2016,12,17,21,08,0.50
2016,12,17,21,09,0.50
2016,12,17,21,10,0.50
2016,12,17,21,11,0.50
2016,12,17,21,12,0.50
2016,12,17,21,13,0.50
2016,12,17,21,14,0.50
2016,12,17,21,15,0.50
2016,12,17,21,16,0.60
2016,12,17,21,17,0.60
2016,12,17,21,18,0.60
2016,12,17,21,19,0.60
2016,12,17,21,20,0.60
2016,12,17,21,21,0.60
2016,12,17,21,22,0.70
2016,12,17,21,23,0.70
2016,12,17,21,24,0.70
2016,12,17,21,25,0.70
2016,12,17,21,26,0.70
2016,12,17,21,27,0.70
2016,12,17,21,28,0.70
2016,12,17,21,29,0.80
2016,12,17,21,30,0.80
2016,12,17,21,31,0.80
2016,12,17,21,32,0.80
2016,12,17,21,33,0.80
2016,12,17,21,34,0.80
2016,12,17,21,35,0.80
2016,12,17,21,36,0.80
2016,12,17,21,37,0.90
2016,12,17,21,38,1.00
2016,12,17,21,39,1.00
2016,12,17,21,40,1.10
2016,12,17,21,41,1.10
2016,12,17,21,42,1.10
2016,12,17,21,43,1.10
2016,12,17,21,44,1.10
2016,12,17,21,45,1.10
2016,12,17,21,46,1.00
2016,12,17,21,47,1.00
2016,12,17,21,48,1.00
2016,12,17,21,49,1.00
2016,12,17,21,50,1.00
2016,12,17,21,51,1.00
2016,12,17,21,52,1.00
2016,12,17,21,53,1.00
2016,12,17,21,54,1.00
2016,12,17,21,55,1.00
2016,12,17,21,56,1.00
2016,12,17,21,57,1.00
2016,12,17,21,58,1.00
2016,12,17,21,59,1.10
2016,12,17,22,00,1.10
2016,12,17,22,01,1.10
2016,12,17,22,02,1.10
2016,12,17,22,03,1.10
2016,12,17,22,04,1.10
2016,12,17,22,05,1.10